[[{"header":{"parameterUnit":"m.s-1","parameterCategory":1,"la1":30.2991,"la2":30.254,"lo1":-89.0895,"lo2":-89.0444,"dy":0.0017,"dx":0.0017,"nx":28,"ny":28,"refTime":"2024-07-11T03:00:00:Z","depth":0,"parameterNumber":2,"parameterNumberName":"U-component_of_WINDS"},"data":[0,0,0,0,0,0,0,0,0,0,0,0,0,0,0,0,0,0,0,0,0,0,0,0,0,0,0,0,0,0,0,0,0,0,0,0,0,0,0,0,0,0,0,0,0,0,0,0,0,0,0,0,0,0,0,0,0,0,1.0526,1.0528,0,1.0664,1.0666,1.0667,1.075,1.075,1.0751,1.0751,1.0894,1.0898,1.0901,0,0,0,0,0,0,0,0,0,0,0,0,0,1.0336,1.0339,1.0526,1.0528,1.053,1.0664,1.0666,1.0668,1.075,1.075,1.0751,1.0751,1.0893,1.0897,1.0901,0,0,0,0,0,0,0,0,0,0,0,0,0,1.0441,1.034,1.0526,1.0587,1.0594,1.0664,1.0666,1.0668,1.075,1.0751,1.0751,1.0752,1.0892,1.0897,1.0902,1.0922,0,0,1.0918,1.092,0,0,0,0,0,0,0,0,1.0435,1.0448,1.0576,1.0583,1.0591,1.0691,1.0651,1.0753,1.075,1.0691,1.0751,1.0752,1.0826,1.0837,1.0861,1.0929,1.0935,1.0918,1.0921,1.0924,1.0925,0,0,0,0,0,0,0,1.0427,1.0442,1.0581,1.0578,1.0587,1.0608,1.0623,1.0671,1.0754,1.0696,1.0702,1.0717,1.083,1.0856,1.0865,1.0937,1.0918,1.0923,1.0926,1.0928,1.1028,1.1028,0,0,0,0,0,0,1.041,1.0436,1.0577,1.0585,1.0512,1.0611,1.0628,1.0658,1.0753,1.0768,1.0717,1.0721,1.0847,1.0859,1.0871,1.09,1.0923,1.0928,1.0931,1.1029,1.1028,1.1028,0,0,0,0,0,0,1.0406,1.0422,1.0571,1.0512,1.0533,1.0614,1.0646,1.066,1.0686,1.0769,1.0784,1.0728,1.0848,1.0863,1.0909,1.0906,1.0931,1.0935,1.1029,1.1029,1.1028,1.096,0,0,0,0,0,0,1.04,1.042,1.0428,1.0512,1.0535,1.0606,1.0646,1.0663,1.0695,1.0701,1.0784,1.0798,1.085,1.09,1.0914,1.0914,1.0939,1.103,1.1029,1.1028,1.0962,1.0957,1.0952,0,0,0,0,0,1.0393,1.0404,1.0428,1.0445,1.0547,1.0606,1.0619,1.0678,1.0694,1.0703,1.0756,1.0795,1.0905,1.0904,1.092,1.0922,1.103,1.1029,1.1028,1.0965,1.0958,1.0952,0,0,0,0,0,0,1.0318,1.0416,1.0444,1.0482,1.0535,1.0619,1.0633,1.0669,1.0719,1.0723,1.0795,1.0812,1.085,1.0891,1.0889,1.0946,1.0972,1.0974,1.0918,1.0912,1.0907,1.0896,1.0944,0,0,0,0,0,1.0306,1.0345,1.0429,1.0454,1.0479,1.0551,1.0579,1.0619,1.0677,1.07,1.0757,1.0812,1.0859,1.0888,1.0936,1.0969,1.0988,1.0978,1.0973,1.0968,1.0969,1.0989,1.0985,1.1025,1.1025,1.1025,0,0,1.0282,1.034,1.036,1.0441,1.0486,1.0525,1.0569,1.0609,1.0638,1.0707,1.0752,1.0795,1.0862,1.0901,1.0921,1.0936,1.0962,1.0967,1.0962,1.0966,1.0987,1.0984,1.098,1.1024,1.1024,1.1024,0,0,1.0257,1.0305,1.0332,1.0376,1.0445,1.0492,1.0498,1.0578,1.0609,1.0656,1.0708,1.0744,1.0824,1.0868,1.0902,1.0893,1.0931,1.0907,1.0879,1.0898,1.0895,1.0892,1.0888,1.0886,1.0908,1.0908,1.0907,0,1.0218,1.0278,1.0341,1.0377,1.041,1.0473,1.0501,1.0541,1.0622,1.0644,1.0659,1.076,1.0809,1.0859,1.0857,1.0882,1.0891,1.0898,1.089,1.0888,1.0887,1.0884,1.0883,1.0904,1.0905,1.0905,1.0905,0,1.0227,1.0267,1.0281,1.0356,1.0391,1.0423,1.049,1.0519,1.0556,1.0602,1.0649,1.0711,1.0771,1.0787,1.0824,1.0842,1.0849,1.0876,1.0903,1.0879,1.0877,1.0877,1.0899,1.0901,1.0902,1.0902,0,0,1.0158,1.0268,1.0271,1.0306,1.0386,1.0419,1.0453,1.0512,1.0535,1.0589,1.0619,1.0684,1.071,1.0747,1.0791,1.0807,1.0796,1.0833,1.0836,1.0823,1.0818,1.0796,1.0794,1.0821,1.0821,1.0822,1.0812,0,1.0144,1.0208,1.0266,1.0309,1.0347,1.0408,1.0438,1.049,1.0534,1.0573,1.0623,1.0667,1.0698,1.0721,1.074,1.0793,1.0796,1.0795,1.085,1.0851,1.083,1.0794,1.0771,1.0759,1.0812,1.0812,1.0812,0,1.0137,1.0187,1.0233,1.0309,1.0327,1.0353,1.0411,1.0448,1.0509,1.054,1.0581,1.0627,1.0666,1.0689,1.0744,1.0742,1.0769,1.0798,1.0799,1.0806,1.0829,1.0798,1.0757,1.0754,1.0812,1.0812,1.0812,0,1.0081,1.016,1.0198,1.0226,1.0316,1.0332,1.0371,1.0432,1.0463,1.0515,1.0536,1.0591,1.0621,1.0663,1.0722,1.0734,1.0771,1.0799,1.0798,1.0796,1.0802,1.0801,1.0763,1.082,1.082,1.082,1.082,0,1.0059,1.0085,1.0174,1.0197,1.0228,1.0294,1.0323,1.0367,1.0421,1.0454,1.051,1.054,1.0617,1.0656,1.0703,1.0741,1.0754,1.078,1.0792,1.0775,1.0771,1.0792,1.0794,1.082,1.082,1.082,1.082,0,1.0001,1.0062,1.0107,1.0188,1.0209,1.0228,1.0298,1.0323,1.037,1.0411,1.0425,1.0499,1.0548,1.0611,1.068,1.0712,1.0744,1.0763,1.0723,1.073,1.0724,1.0723,1.0698,1.0697,1.0755,1.0754,1.0754,0,0.9982,1.0003,1.0087,1.0112,1.0148,1.019,1.0222,1.0288,1.0319,1.039,1.0406,1.0459,1.0505,1.058,1.0641,1.0694,1.0714,1.0702,1.0722,1.0704,1.0713,1.071,1.0712,1.0696,1.0695,1.0694,1.0693,0,0.9942,0.9971,1.0015,1.007,1.0106,1.0153,1.0202,1.022,1.0296,1.0328,1.0378,1.0414,1.0484,1.0536,1.0597,1.0637,1.0677,1.0686,1.0689,1.067,1.0645,1.0658,1.0707,1.0687,1.0687,1.0688,1.0688,1.0688,0.9903,0.9924,0.9986,1.0033,1.0076,1.0121,1.0148,1.0198,1.0241,1.0303,1.0339,1.0388,1.0448,1.0534,1.0572,1.0612,1.0627,1.0631,1.0631,1.0631,1.0625,1.064,1.0623,1.0624,1.0624,1.0624,1.0624,0,0.9865,0.9907,0.995,1.0016,1.0053,1.0088,1.0144,1.0172,1.0214,1.0267,1.0311,1.0368,1.0419,1.0483,1.0538,1.0557,1.0577,1.0569,1.0567,1.0576,1.0608,1.06,1.0551,1.0551,1.0551,1.0551,1.0551,1.0551,0.9849,0.9887,0.9923,0.9983,1.0026,1.0073,1.0102,1.0143,1.0185,1.0246,1.0288,1.033,1.0387,1.0447,1.0494,1.0512,1.0529,1.0515,1.0538,1.0567,1.0574,1.058,1.0572,1.0519,1.0519,1.0503,1.0502,1.0502]},{"header":{"parameterUnit":"m.s-1","parameterCategory":1,"la1":30.2991,"la2":30.254,"lo1":-89.0895,"lo2":-89.0444,"dy":0.0017,"dx":0.0017,"nx":28,"ny":28,"refTime":"2024-07-11T03:00:00:Z","depth":0,"parameterNumber":3,"parameterNumberName":"V-component_of_WINDS"},"data":[0,0,0,0,0,0,0,0,0,0,0,0,0,0,0,0,0,0,0,0,0,0,0,0,0,0,0,0,0,0,0,0,0,0,0,0,0,0,0,0,0,0,0,0,0,0,0,0,0,0,0,0,0,0,0,0,0,0,2.0815,2.0815,0,2.0801,2.0801,2.0801,2.0808,2.0809,2.0809,2.0809,2.0793,2.0792,2.0792,0,0,0,0,0,0,0,0,0,0,0,0,0,2.0845,2.0844,2.0815,2.0815,2.0815,2.0801,2.0801,2.0801,2.0808,2.0809,2.0809,2.081,2.0793,2.0793,2.0792,0,0,0,0,0,0,0,0,0,0,0,0,0,2.0832,2.0844,2.0815,2.0817,2.0817,2.0801,2.0801,2.0801,2.0808,2.0809,2.0809,2.081,2.0794,2.0793,2.0791,2.0773,0,0,2.0788,2.0787,0,0,0,0,0,0,0,0,2.0832,2.0831,2.0817,2.0817,2.0817,2.0807,2.0806,2.0792,2.0808,2.0811,2.0809,2.081,2.0797,2.0796,2.0792,2.0772,2.0772,2.0788,2.0787,2.0787,2.0786,0,0,0,0,0,0,0,2.0833,2.0831,2.081,2.0817,2.0817,2.0817,2.0816,2.0803,2.0801,2.0811,2.0812,2.081,2.0797,2.0793,2.0792,2.0771,2.0788,2.0787,2.0786,2.0786,2.0734,2.0733,0,0,0,0,0,0,2.0834,2.0832,2.081,2.0809,2.0826,2.0816,2.0815,2.081,2.0801,2.0801,2.081,2.081,2.0795,2.0793,2.0791,2.0767,2.0787,2.0786,2.0785,2.0734,2.0734,2.0733,0,0,0,0,0,0,2.0835,2.0832,2.0811,2.0821,2.0818,2.0815,2.0809,2.0809,2.0805,2.08,2.08,2.0806,2.0795,2.0793,2.0777,2.0767,2.0785,2.0784,2.0735,2.0734,2.0733,2.0721,0,0,0,0,0,0,2.0836,2.0833,2.0826,2.0821,2.0817,2.0798,2.0809,2.0808,2.0803,2.0804,2.0797,2.0796,2.0795,2.0779,2.0776,2.0766,2.0783,2.0736,2.0735,2.0733,2.0722,2.072,2.0717,0,0,0,0,0,2.0837,2.0823,2.0826,2.0823,2.081,2.0797,2.0795,2.0796,2.0802,2.0795,2.0792,2.0796,2.0769,2.0777,2.0774,2.0763,2.0737,2.0735,2.0734,2.0723,2.072,2.0717,0,0,0,0,0,0,2.0828,2.0823,2.0826,2.081,2.0804,2.0799,2.079,2.0793,2.0784,2.0786,2.0786,2.0784,2.0767,2.0764,2.0773,2.0744,2.0754,2.0751,2.0747,2.0744,2.0741,2.0742,2.0782,0,0,0,0,0,2.0824,2.0815,2.0811,2.0797,2.0794,2.0793,2.0787,2.0788,2.0782,2.0779,2.0775,2.0768,2.0757,2.0751,2.0741,2.0722,2.0719,2.0713,2.0711,2.0709,2.0706,2.0694,2.069,2.0728,2.0728,2.0728,0,0,2.0816,2.0812,2.0806,2.0795,2.0791,2.0781,2.079,2.078,2.0771,2.0777,2.0762,2.0758,2.075,2.0733,2.0725,2.0729,2.0695,2.0707,2.0705,2.0704,2.0692,2.0689,2.0685,2.0727,2.0727,2.0727,0,0,2.0795,2.0792,2.078,2.0775,2.0768,2.0767,2.0764,2.0758,2.0756,2.0741,2.0745,2.0735,2.0717,2.0711,2.0706,2.0682,2.0684,2.0679,2.0666,2.0654,2.0651,2.0648,2.0638,2.0634,2.0677,2.0676,2.0676,0,2.0786,2.0771,2.0773,2.0761,2.0756,2.0761,2.0748,2.0743,2.0733,2.0728,2.0734,2.0711,2.0707,2.0686,2.068,2.0677,2.0672,2.0679,2.0651,2.0649,2.0646,2.0636,2.0633,2.0676,2.0676,2.0676,2.0676,0,2.0759,2.0749,2.0739,2.073,2.0723,2.0711,2.071,2.0703,2.0704,2.0702,2.0685,2.068,2.0668,2.0664,2.0665,2.0643,2.0646,2.0651,2.0661,2.0642,2.0632,2.0629,2.0675,2.0675,2.0675,2.0675,0,0,2.0732,2.0723,2.072,2.0715,2.0707,2.0699,2.0686,2.0676,2.0669,2.0662,2.065,2.0635,2.0639,2.0633,2.0633,2.0623,2.0602,2.0629,2.0629,2.0623,2.0576,2.057,2.0566,2.0604,2.0604,2.0603,2.0576,0,2.071,2.0688,2.0689,2.0668,2.0658,2.0662,2.0651,2.0644,2.0642,2.0632,2.0629,2.0617,2.0625,2.0621,2.0611,2.0607,2.0592,2.0609,2.0591,2.0591,2.0592,2.0562,2.0557,2.0531,2.0572,2.0572,2.0571,0,2.0681,2.0673,2.0651,2.0644,2.064,2.063,2.0619,2.061,2.0602,2.0601,2.0593,2.0595,2.0581,2.0591,2.057,2.0581,2.0574,2.0571,2.057,2.0567,2.0579,2.0556,2.0523,2.0519,2.0566,2.0566,2.0567,0,2.0661,2.0645,2.063,2.0626,2.0618,2.061,2.0606,2.0599,2.0592,2.0582,2.0578,2.0567,2.056,2.0551,2.0548,2.0557,2.0527,2.0538,2.0524,2.0524,2.0516,2.0516,2.048,2.0514,2.0514,2.0514,2.0514,0,2.0636,2.0622,2.0621,2.0611,2.0595,2.0596,2.058,2.0576,2.057,2.0558,2.0562,2.0551,2.0549,2.0538,2.0536,2.0518,2.0515,2.0512,2.0512,2.0511,2.0511,2.0505,2.0507,2.0513,2.0513,2.0514,2.0514,0,2.0611,2.061,2.0593,2.0586,2.0584,2.0573,2.0567,2.0557,2.0554,2.054,2.0536,2.0532,2.0518,2.0516,2.05,2.0498,2.0476,2.0478,2.0479,2.0478,2.0464,2.0464,2.0421,2.0414,2.0455,2.0454,2.0454,0,2.0594,2.0583,2.0576,2.0568,2.0564,2.0553,2.0546,2.0546,2.0538,2.0528,2.0518,2.0505,2.0494,2.0472,2.0466,2.0454,2.0454,2.044,2.0452,2.0451,2.0452,2.0452,2.045,2.0437,2.0436,2.0436,2.0436,0,2.0563,2.0563,2.0553,2.0542,2.0534,2.0526,2.0517,2.0511,2.051,2.0501,2.0487,2.0479,2.0462,2.0448,2.0435,2.0429,2.0431,2.0432,2.0428,2.0426,2.0426,2.0424,2.047,2.0433,2.0433,2.0433,2.0433,2.0434,2.054,2.053,2.0523,2.0512,2.0506,2.0498,2.0488,2.0484,2.0473,2.046,2.046,2.0444,2.0435,2.0418,2.0412,2.0398,2.0403,2.0397,2.0395,2.0393,2.0391,2.043,2.0396,2.0396,2.0396,2.0396,2.0396,0,2.0508,2.0504,2.0493,2.0482,2.0472,2.0477,2.0468,2.0459,2.0445,2.0437,2.0426,2.0409,2.0396,2.0389,2.0375,2.0366,2.0366,2.0362,2.0362,2.036,2.0389,2.0393,2.0361,2.0361,2.0361,2.0361,2.0361,2.0361,2.049,2.0473,2.0472,2.0452,2.0447,2.0432,2.0427,2.0419,2.0412,2.0393,2.0382,2.0378,2.037,2.0355,2.0342,2.0341,2.0334,2.0329,2.0328,2.0355,2.0358,2.0361,2.0365,2.0328,2.0328,2.0299,2.0299,2.0299]}]]